This is the latest recevied weather packets stored in our database for station/object N2QKV-13. If no packets are shown the sender has not sent any weather packets the latest 10 day(s).
| Time | Temp. | Humidity | Pressure | Rain* | Wind** | Luminosity | Snow |
|---|---|---|---|---|---|---|---|
| 1777656004 | 17.22° C | 49% | 1012.3 hPa | 0 mm | - | - | - |
| 1777655703 | 17.22° C | 48% | 1012.4 hPa | 0 mm | - | - | - |
| 1777655404 | 17.22° C | 44% | 1012.3 hPa | 0 mm | - | - | - |
| 1777655104 | 17.22° C | 44% | 1012.4 hPa | 0 mm | - | - | - |
| 1777654804 | 17.22° C | 43% | 1012.4 hPa | 0 mm | - | - | - |
| 1777654504 | 17.22° C | 42% | 1012.6 hPa | 0 mm | - | - | - |
| 1777654204 | 16.67° C | 43% | 1012.5 hPa | 0 mm | - | - | - |
| 1777653903 | 16.67° C | 47% | 1012.6 hPa | 0 mm | - | - | - |
| 1777653604 | 16.67° C | 45% | 1012.7 hPa | 0 mm | - | - | - |
| 1777653304 | 16.67° C | 48% | 1012.7 hPa | 0 mm | - | - | - |
| 1777653004 | 16.67° C | 47% | 1012.7 hPa | 0 mm | - | - | - |
| 1777652703 | 16.67° C | 48% | 1012.8 hPa | 0 mm | - | - | - |
| 1777652404 | 16.67° C | 47% | 1012.8 hPa | 0 mm | - | - | - |
| 1777652104 | 16.11° C | 47% | 1013 hPa | 0 mm | - | - | - |
| 1777651804 | 15.56° C | 44% | 1013 hPa | 0 mm | - | - | - |
| 1777651504 | 16.11° C | 43% | 1013.1 hPa | 0 mm | - | - | - |
| 1777651204 | 16.11° C | 46% | 1013.1 hPa | 0 mm | - | - | - |
| 1777650903 | 16.11° C | 48% | 1013.2 hPa | 0 mm | - | - | - |
| 1777650603 | 16.11° C | 49% | 1013.5 hPa | 0 mm | - | - | - |
| 1777650303 | 16.11° C | 48% | 1013.5 hPa | 0 mm | - | - | - |
| 1777650004 | 15.56° C | 47% | 1013.5 hPa | 0 mm | - | - | - |
| 1777649704 | 16.11° C | 49% | 1013.4 hPa | 0 mm | - | - | - |
| 1777649404 | 15.56° C | 47% | 1013.6 hPa | 0 mm | - | - | - |
| 1777649104 | 15.56° C | 50% | 1013.6 hPa | 0 mm | - | - | - |
| 1777648804 | 15.56° C | 51% | 1013.5 hPa | 0 mm | - | - | - |
* Rain latest hour (hover to see other rain measurements)
** Current wind speed in m/s (hover to see current wind gust speed)